Location: Poughquag
(41.6090°N, 73.6820°W)
Time: 12:53:47
(UTC-04:00)

CUBEBUG 2 - Pass Details

Date: 03 June 2024
Orbit: 571 x 666 km, 97.8° (Epoch: 14 June)

Event Time Altitude Azimuth Distance (km) Brightness Sun altitude
Rises 01:39:54 0° 36° (NE) 3,008 ? -25.1°
Reaches altitude 10° 01:43:42 10° 68° (ENE) 2,094 ? -24.9°
Maximum altitude 01:45:20 12° 89° (E) 1,976 ? -24.9°
Enters shadow 01:46:47 10° 108° (ESE) 2,065 ? -24.8°
